Салтыковка

Россия / Московская область     55°45′45″N   37°55′20″E
темп.,
°C
ветер,
м/с
пор.,
м/с
влажн.,
%
обл.,
%
осадки,
мм/ч
давл.,
гПа
погр.,
м
19 апреля, пн
пн1900:00+7св3972100 0.0 1023680
03:00+7св4978100 0.1 1023638
06:00+6всв51184100 0.0 1023602
09:00+7всв587199 0.0 1023721
12:00+10всв685398 0.0 10231132
15:00+11всв6846100 0.0 10231571
18:00+9всв6952100 0.0 10231416
21:00+7в61051100 0.0 10241179
20 апреля, вт
вт2000:00+5в5951100 0.0 10241008
03:00+3всв5117993 0.4 1023723
06:00+3в51174100 0.0 1022657
09:00+4в697298 0.1 1022737
12:00+6в7969100 0.0 10211085
15:00+3всв51194100 0.3 1020670
18:00+3в51195100 0.4 1018696
21:00+3в51395100 0.6 1015689
21 апреля, ср
ср2100:00+3всв61496100 3.6 1009845
03:00+3всв61596100 10.8 1004959
06:00+5в61593100 2.3 1001941
09:00+7вюв71492100 2.5 999782
12:00+7вюв41096100 2.2 997801
15:00+4ююз3795100 3.3 1000600
18:00+4зюз61182100 0.1 1006997
21:00+4юз41080100 0.3 10101054
22 апреля, чт
чт2200:00+4ююз4991100 0.1 1011385
03:00+4ююз3991100 0.3 1013471
06:00+3ююз379190 0.0 1014314
09:00+6ююз3680100 0.0 1015477
12:00+9ююз4766100 0.1 10161263
15:00+11юз465599 0.4 10161659
18:00+11ююз365673 0.1 1016970
21:00+8ююв377370 0.1 1017150
23 апреля, пт
пт2300:00+7ююв311875 0.0 1017308
03:00+6ююв389312 0.0 1017171
06:00+6ююв4118775 0.0 1016293
09:00+11ю5116999 0.1 1016611
12:00+15ю6105543 0.7 10151444
15:00+17ю7114978 1.6 10141946
18:00+15ю6116094 1.0 10141283
21:00+11ю5137685 1.9 1013666